This is the latest recevied weather packets stored in our database for station/object Ummendorf. If no packets are shown the sender has not sent any weather packets the latest 10 day(s).
| Time | Temp. | Humidity | Pressure | Rain* | Wind** | Luminosity | Snow |
|---|---|---|---|---|---|---|---|
| 1777566730 | 15° C | 12% | 1024.7 hPa | 0 mm | - | - | - |
| 1777564930 | 15.56° C | 12% | 1024.7 hPa | 0 mm | - | - | - |
| 1777563132 | 15.56° C | 12% | 1024.8 hPa | 0 mm | - | - | - |
| 1777559530 | 15.56° C | 12% | 1024.6 hPa | 0 mm | - | - | - |
| 1777557730 | 15.56° C | 13% | 1024.5 hPa | 0 mm | - | - | - |
| 1777555931 | 15° C | 13% | 1024.4 hPa | 0 mm | - | - | - |
| 1777554130 | 14.44° C | 14% | 1024.5 hPa | 0 mm | - | - | - |
| 1777552332 | 14.44° C | 16% | 1024.8 hPa | 0 mm | - | - | - |
| 1777550530 | 13.89° C | 17% | 1024.8 hPa | 0 mm | - | - | - |
| 1777548730 | 13.33° C | 24% | 1025.1 hPa | 0 mm | - | - | - |
| 1777546931 | 13.33° C | 25% | 1025.2 hPa | 0 mm | - | - | - |
| 1777545130 | 12.22° C | 25% | 1025.4 hPa | 0 mm | - | - | - |
| 1777543330 | 11.67° C | 26% | 1025.6 hPa | 0 mm | - | - | - |
| 1777541531 | 11.11° C | 28% | 1025.8 hPa | 0 mm | - | - | - |
| 1777539731 | 10° C | 29% | 1025.8 hPa | 0 mm | - | - | - |
| 1777537942 | 9.44° C | 30% | 1025.9 hPa | 0 mm | - | - | - |
| 1777536137 | 8.33° C | 32% | 1025.5 hPa | 0 mm | - | - | - |
| 1777534332 | 7.22° C | 33% | 1025.6 hPa | 0 mm | - | - | - |
| 1777532532 | 6.67° C | 34% | 1025.5 hPa | 0 mm | - | - | - |
| 1777530736 | 6.11° C | 35% | 1025.5 hPa | 0 mm | - | - | - |
| 1777528931 | 5° C | 36% | 1025.5 hPa | 0 mm | - | - | - |
| 1777527131 | 4.44° C | 39% | 1025.4 hPa | 0 mm | - | - | - |
| 1777525331 | 3.89° C | 42% | 1025.1 hPa | 0 mm | - | - | - |
| 1777523532 | 3.89° C | 42% | 1025.1 hPa | 0 mm | - | - | - |
| 1777521732 | 4.44° C | 42% | 1024.9 hPa | 0 mm | - | - | - |
* Rain since midnight (hover to see other rain measurements)
** Current wind speed in m/s (hover to see current wind gust speed)